Tracking 35048 objects as of 19-Aug-2026
HD Live streaming from Space Station
objects crossing your sky now

COSMOS 1348 DEB


NORAD ID: 32771
Int'l Code: 1982-029E
Launch date: April 7, 1982
Source: Commonwealth of Independent States (former USSR) (CIS)
Launch site: PLESETSK MISSILE AND SPACE COMPLEX (PKMTR)

Note: This is SATELLITE DEBRIS
Your satellite tracking list
Your tracking list is empty




NASA's NSSDC Master Catalog

Two Line Element Set (TLE):
1 32771U 82029E   11119.26152229  .00000039  00000-0  10000-3 0  9999
2 32771  71.4236  24.9352 5028930 150.4083 251.2128  1.95935068 37533
Source of the keplerian elements: AFSPC